SKU1744 SCSE-SCCF

Flight info

Callsign SKU1744
Flight time 1h 18m
Altitude 35000
Route VUGUS UQ802 PUNAP UT296 BUVSA/N0450F360 UT296 PAGUN UQ814 MARGU MARGU3A
Aircraft A21N/M-SDE2E3FGHIRWXY/LB1

Departure

Time 2026-04-22 15:57
Airport La Florida Airport (SCSE)

Arrival

Time 2026-04-22 17:15
Airport El Loa Airport (SCCF)
Time Latitude Longitude Altitude Speed Heading
2026-04-22 15:32 -29.91665 -71.20339 486 ft 0 kts 205°
2026-04-22 15:45 -29.91667 -71.20340 486 ft 0 kts 205°
2026-04-22 15:52 -29.91672 -71.20340 476 ft 2 kts 174°
2026-04-22 15:52 -29.91671 -71.20320 483 ft 4 kts 46°
2026-04-22 15:52 -29.91646 -71.20292 486 ft 6 kts 64°
2026-04-22 15:52 -29.91652 -71.20232 482 ft 9 kts 113°
2026-04-22 15:53 -29.91661 -71.20159 479 ft 11 kts 52°
2026-04-22 15:53 -29.91602 -71.20097 481 ft 12 kts 71°
2026-04-22 15:53 -29.91624 -71.19997 480 ft 14 kts 117°
2026-04-22 15:53 -29.91673 -71.19887 480 ft 16 kts 116°
2026-04-22 15:54 -29.91721 -71.19772 479 ft 17 kts 116°
2026-04-22 15:54 -29.91774 -71.19644 484 ft 19 kts 116°
2026-04-22 15:54 -29.91837 -71.19503 481 ft 21 kts 118°
2026-04-22 15:54 -29.91906 -71.19350 483 ft 22 kts 117°
2026-04-22 15:55 -29.91973 -71.19203 484 ft 12 kts 119°
2026-04-22 15:55 -29.92009 -71.19139 480 ft 10 kts 130°
2026-04-22 15:55 -29.92043 -71.19073 484 ft 7 kts 80°
2026-04-22 15:55 -29.92019 -71.19068 477 ft 4 kts 308°
2026-04-22 15:56 -29.92005 -71.19106 478 ft 2 kts 295°
2026-04-22 15:56 -29.91999 -71.19122 479 ft 16 kts 296°
2026-04-22 15:56 -29.91823 -71.19535 481 ft 95 kts 296°
2026-04-22 15:56 -29.91440 -71.20427 591 ft 139 kts 295°
2026-04-22 15:57 -29.91010 -71.21400 1171 ft 135 kts 296°
2026-04-22 15:57 -29.90611 -71.22397 1623 ft 139 kts 294°
2026-04-22 15:57 -29.90176 -71.23413 2013 ft 143 kts 297°
2026-04-22 15:57 -29.89720 -71.24463 2343 ft 154 kts 296°
2026-04-22 15:58 -29.89183 -71.25619 2799 ft 171 kts 306°
2026-04-22 15:58 -29.88129 -71.26391 3350 ft 195 kts 345°
2026-04-22 15:58 -29.86690 -71.26239 3758 ft 228 kts 20°
2026-04-22 15:58 -29.85150 -71.25437 4260 ft 255 kts 25°
2026-04-22 15:59 -29.83506 -71.24534 5089 ft 266 kts 24°
2026-04-22 15:59 -29.81824 -71.23629 6080 ft 268 kts 23°
2026-04-22 15:59 -29.80147 -71.22743 7092 ft 269 kts 23°
2026-04-22 15:59 -29.78442 -71.21851 8088 ft 270 kts 23°
2026-04-22 16:00 -29.76718 -71.20956 9091 ft 272 kts 22°
2026-04-22 16:00 -29.74987 -71.20058 10079 ft 275 kts 23°
2026-04-22 16:00 -29.73179 -71.19120 10568 ft 297 kts 22°
2026-04-22 16:00 -29.71223 -71.18114 11023 ft 316 kts 22°
2026-04-22 16:01 -29.69192 -71.17066 11771 ft 324 kts 22°
2026-04-22 16:01 -29.67117 -71.16008 12622 ft 329 kts 20°
2026-04-22 16:01 -29.64948 -71.15110 13488 ft 333 kts 17°
2026-04-22 16:01 -29.62733 -71.14263 14310 ft 338 kts 16°
2026-04-22 16:02 -29.60482 -71.13409 15046 ft 343 kts 16°
2026-04-22 16:02 -29.58190 -71.12538 15739 ft 350 kts 16°
2026-04-22 16:02 -29.55853 -71.11647 16445 ft 357 kts 16°
2026-04-22 16:02 -29.53476 -71.10740 17149 ft 363 kts 15°
2026-04-22 16:03 -29.51055 -71.09815 17861 ft 369 kts 15°
2026-04-22 16:03 -29.48597 -71.08878 18548 ft 376 kts 15°
2026-04-22 16:03 -29.46131 -71.07938 19144 ft 381 kts 15°
2026-04-22 16:03 -29.43601 -71.06972 19786 ft 384 kts 15°
2026-04-22 16:04 -29.41052 -71.05998 20421 ft 388 kts 14°
2026-04-22 16:04 -29.38478 -71.05013 21053 ft 392 kts 14°
2026-04-22 16:04 -29.35875 -71.04022 21678 ft 396 kts 14°
2026-04-22 16:04 -29.33242 -71.03021 22321 ft 400 kts 14°
2026-04-22 16:05 -29.31491 -71.02354 22744 ft 402 kts 14°
2026-04-22 16:05 -29.27908 -71.01017 23572 ft 406 kts 12°
2026-04-22 16:05 -29.25151 -71.00407 24130 ft 403 kts
2026-04-22 16:05 -29.22355 -71.00121 24687 ft 404 kts 359°
2026-04-22 16:06 -29.19542 -70.99878 25246 ft 405 kts 359°
2026-04-22 16:06 -29.16713 -70.99629 25797 ft 407 kts 359°
2026-04-22 16:06 -29.13892 -70.99370 26349 ft 408 kts 359°
2026-04-22 16:06 -29.11058 -70.99108 26862 ft 409 kts 358°
2026-04-22 16:07 -29.08246 -70.98845 27365 ft 411 kts 358°
2026-04-22 16:07 -29.05391 -70.98563 27854 ft 412 kts 358°
2026-04-22 16:07 -29.02525 -70.98300 28343 ft 414 kts 358°
2026-04-22 16:07 -28.99648 -70.98037 28822 ft 415 kts 357°
2026-04-22 16:08 -28.96769 -70.97768 29333 ft 415 kts 357°
2026-04-22 16:08 -28.93889 -70.97500 29798 ft 416 kts 356°
2026-04-22 16:08 -28.90995 -70.97231 30235 ft 417 kts 356°
2026-04-22 16:08 -28.88098 -70.96959 30633 ft 418 kts 356°
2026-04-22 16:09 -28.85201 -70.96687 31164 ft 415 kts 356°
2026-04-22 16:09 -28.82330 -70.96417 31692 ft 411 kts 356°
2026-04-22 16:09 -28.79494 -70.96149 32219 ft 407 kts 355°
2026-04-22 16:09 -28.76675 -70.95882 32751 ft 405 kts 355°
2026-04-22 16:10 -28.73918 -70.95623 33234 ft 401 kts 355°
2026-04-22 16:10 -28.71152 -70.95363 33727 ft 396 kts 354°
2026-04-22 16:10 -28.69305 -70.95190 34055 ft 394 kts 354°
2026-04-22 16:10 -28.65694 -70.94855 34565 ft 392 kts 354°
2026-04-22 16:11 -28.62968 -70.94603 34936 ft 392 kts 354°
2026-04-22 16:11 -28.60257 -70.94350 35121 ft 390 kts 354°
2026-04-22 16:11 -28.54853 -70.93848 35159 ft 389 kts 354°
2026-04-22 16:12 -28.49445 -70.93346 35148 ft 389 kts 354°
2026-04-22 16:12 -28.44036 -70.92788 35138 ft 390 kts 354°
2026-04-22 16:13 -28.38666 -70.92223 35152 ft 390 kts 354°
2026-04-22 16:13 -28.33270 -70.91666 35158 ft 389 kts 354°
2026-04-22 16:14 -28.27851 -70.90709 35152 ft 407 kts
2026-04-22 16:14 -28.25205 -70.89386 35154 ft 427 kts 18°
2026-04-22 16:14 -28.22723 -70.87441 35139 ft 438 kts 24°
2026-04-22 16:15 -28.17885 -70.83196 35156 ft 439 kts 25°
2026-04-22 16:15 -28.13028 -70.79006 35143 ft 437 kts 24°
2026-04-22 16:16 -28.08199 -70.74914 35155 ft 436 kts 24°
2026-04-22 16:16 -28.03327 -70.70835 35152 ft 436 kts 23°
2026-04-22 16:17 -27.98451 -70.66741 35157 ft 436 kts 24°
2026-04-22 16:17 -27.93582 -70.62642 35152 ft 436 kts 24°
2026-04-22 16:18 -27.88721 -70.58545 35149 ft 435 kts 24°
2026-04-22 16:18 -27.83855 -70.54458 35151 ft 436 kts 24°
2026-04-22 16:19 -27.79025 -70.50406 35128 ft 435 kts 23°
2026-04-22 16:19 -27.74169 -70.46334 35137 ft 435 kts 23°
2026-04-22 16:20 -27.70128 -70.42943 35133 ft 435 kts 23°
2026-04-22 16:20 -27.65253 -70.38864 35143 ft 435 kts 23°
2026-04-22 16:21 -27.60390 -70.34795 35142 ft 434 kts 23°
2026-04-22 16:21 -27.55563 -70.30764 35119 ft 433 kts 23°
2026-04-22 16:22 -27.48285 -70.24704 35108 ft 433 kts 23°
2026-04-22 16:23 -27.41012 -70.18622 35113 ft 434 kts 23°
2026-04-22 16:23 -27.36172 -70.14574 35126 ft 433 kts 23°
2026-04-22 16:24 -27.28931 -70.08567 35122 ft 432 kts 22°
2026-04-22 16:24 -27.26475 -70.06679 35119 ft 421 kts 17°
2026-04-22 16:25 -27.23894 -70.05230 35131 ft 411 kts 11°
2026-04-22 16:25 -27.16031 -70.01372 35114 ft 411 kts 11°
2026-04-22 16:26 -27.10800 -69.98765 35123 ft 412 kts 12°
2026-04-22 16:26 -27.05586 -69.96148 35124 ft 412 kts 11°
2026-04-22 16:27 -27.00324 -69.93513 35124 ft 411 kts 11°
2026-04-22 16:27 -26.95144 -69.90920 35143 ft 411 kts 11°
2026-04-22 16:28 -26.89924 -69.88310 35142 ft 411 kts 11°
2026-04-22 16:28 -26.84697 -69.85682 35134 ft 412 kts 11°
2026-04-22 16:29 -26.79463 -69.83078 35136 ft 411 kts 11°
2026-04-22 16:29 -26.74226 -69.80477 35139 ft 411 kts 11°
2026-04-22 16:30 -26.68992 -69.77873 35169 ft 411 kts 11°
2026-04-22 16:30 -26.63758 -69.75272 35169 ft 412 kts 11°
2026-04-22 16:31 -26.58546 -69.72684 35168 ft 411 kts 11°
2026-04-22 16:31 -26.53310 -69.70086 35168 ft 412 kts 12°
2026-04-22 16:32 -26.48062 -69.67488 35167 ft 412 kts 12°
2026-04-22 16:32 -26.42842 -69.64903 35186 ft 412 kts 12°
2026-04-22 16:33 -26.37587 -69.62299 35186 ft 412 kts 12°
2026-04-22 16:33 -26.32342 -69.59714 35185 ft 412 kts 12°
2026-04-22 16:34 -26.27087 -69.57115 35181 ft 412 kts 12°
2026-04-22 16:34 -26.21834 -69.54526 35168 ft 413 kts 12°
2026-04-22 16:35 -26.16611 -69.51952 35201 ft 414 kts 12°
2026-04-22 16:35 -26.11340 -69.49364 35203 ft 413 kts 12°
2026-04-22 16:36 -26.06074 -69.46778 35198 ft 413 kts 12°
2026-04-22 16:36 -26.00805 -69.44187 35206 ft 414 kts 12°
2026-04-22 16:37 -25.95532 -69.41599 35159 ft 414 kts 12°
2026-04-22 16:37 -25.90272 -69.39021 35226 ft 416 kts 13°
2026-04-22 16:38 -25.84969 -69.36419 35228 ft 416 kts 12°
2026-04-22 16:38 -25.79673 -69.33819 35231 ft 416 kts 12°
2026-04-22 16:39 -25.74378 -69.31233 35228 ft 416 kts 12°
2026-04-22 16:39 -25.69076 -69.28646 35221 ft 416 kts 12°
2026-04-22 16:40 -25.63779 -69.26064 35202 ft 416 kts 12°
2026-04-22 16:41 -25.55759 -69.22826 35248 ft 399 kts
2026-04-22 16:41 -25.50282 -69.21889 35249 ft 397 kts 359°
2026-04-22 16:42 -25.44810 -69.20962 35248 ft 398 kts 359°
2026-04-22 16:42 -25.39347 -69.20010 35246 ft 397 kts 359°
2026-04-22 16:43 -25.33909 -69.19059 35211 ft 399 kts 359°
2026-04-22 16:43 -25.28385 -69.18094 35247 ft 402 kts 360°
2026-04-22 16:44 -25.22846 -69.17125 35242 ft 403 kts 360°
2026-04-22 16:44 -25.17308 -69.16154 35239 ft 402 kts 360°
2026-04-22 16:45 -25.11783 -69.15188 35231 ft 402 kts 360°
2026-04-22 16:45 -25.06261 -69.14228 35220 ft 401 kts 359°
2026-04-22 16:46 -25.00762 -69.13274 35208 ft 405 kts 360°
2026-04-22 16:46 -24.95182 -69.12301 35224 ft 405 kts 360°
2026-04-22 16:47 -24.89602 -69.11330 35224 ft 406 kts 360°
2026-04-22 16:47 -24.84044 -69.10362 35210 ft 404 kts 360°
2026-04-22 16:48 -24.78494 -69.09401 35213 ft 403 kts 360°
2026-04-22 16:48 -24.72939 -69.08416 35174 ft 404 kts
2026-04-22 16:49 -24.67413 -69.07429 35186 ft 405 kts
2026-04-22 16:49 -24.61834 -69.06434 35171 ft 406 kts
2026-04-22 16:50 -24.56258 -69.05436 35175 ft 406 kts
2026-04-22 16:50 -24.50680 -69.04447 35171 ft 406 kts
2026-04-22 16:51 -24.45098 -69.03459 35164 ft 406 kts
2026-04-22 16:51 -24.39552 -69.02477 35156 ft 407 kts
2026-04-22 16:52 -24.33946 -69.01480 35151 ft 408 kts
2026-04-22 16:52 -24.28349 -69.00485 35147 ft 407 kts
2026-04-22 16:53 -24.22755 -68.99497 35137 ft 407 kts
2026-04-22 16:53 -24.17161 -68.98508 35149 ft 407 kts
2026-04-22 16:54 -24.11570 -68.97520 35110 ft 408 kts
2026-04-22 16:54 -24.05950 -68.96530 35122 ft 408 kts
2026-04-22 16:54 -24.03165 -68.96037 34860 ft 405 kts
2026-04-22 16:55 -24.00402 -68.95553 34602 ft 408 kts
2026-04-22 16:55 -23.97557 -68.95054 34367 ft 408 kts
2026-04-22 16:55 -23.94799 -68.94569 34143 ft 407 kts
2026-04-22 16:55 -23.92005 -68.94077 33887 ft 406 kts
2026-04-22 16:56 -23.89224 -68.93587 33626 ft 404 kts
2026-04-22 16:56 -23.86452 -68.93098 33352 ft 403 kts
2026-04-22 16:56 -23.83682 -68.92609 33102 ft 401 kts
2026-04-22 16:56 -23.80922 -68.92122 32829 ft 400 kts
2026-04-22 16:57 -23.78192 -68.91642 32429 ft 395 kts
2026-04-22 16:57 -23.75488 -68.91168 31954 ft 392 kts
2026-04-22 16:57 -23.72794 -68.90699 31480 ft 390 kts
2026-04-22 16:57 -23.70124 -68.90232 31007 ft 388 kts
2026-04-22 16:58 -23.68366 -68.89925 30686 ft 386 kts
2026-04-22 16:58 -23.64826 -68.89305 30070 ft 384 kts
2026-04-22 16:58 -23.62226 -68.88850 29524 ft 382 kts
2026-04-22 16:58 -23.59604 -68.88391 29000 ft 380 kts
2026-04-22 16:59 -23.57006 -68.87935 28512 ft 377 kts
2026-04-22 16:59 -23.54420 -68.87482 28051 ft 374 kts
2026-04-22 16:59 -23.51860 -68.87035 27592 ft 371 kts
2026-04-22 16:59 -23.49325 -68.86592 27139 ft 368 kts
2026-04-22 17:00 -23.46797 -68.86150 26676 ft 367 kts
2026-04-22 17:00 -23.41784 -68.85276 25767 ft 363 kts
2026-04-22 17:00 -23.39288 -68.84840 25349 ft 362 kts
2026-04-22 17:01 -23.36812 -68.84408 24923 ft 360 kts
2026-04-22 17:01 -23.34338 -68.83974 24459 ft 360 kts
2026-04-22 17:01 -23.31866 -68.83500 24015 ft 360 kts
2026-04-22 17:01 -23.29401 -68.83016 23558 ft 360 kts
2026-04-22 17:02 -23.26968 -68.82540 23080 ft 358 kts
2026-04-22 17:02 -23.24522 -68.82064 22599 ft 357 kts
2026-04-22 17:02 -23.22080 -68.81591 22119 ft 356 kts
2026-04-22 17:02 -23.19648 -68.81121 21651 ft 354 kts
2026-04-22 17:03 -23.17231 -68.80654 21190 ft 352 kts
2026-04-22 17:03 -23.14825 -68.80191 20744 ft 350 kts
2026-04-22 17:03 -23.12426 -68.79729 20314 ft 349 kts
2026-04-22 17:03 -23.10033 -68.79266 19901 ft 347 kts
2026-04-22 17:04 -23.08460 -68.78962 19629 ft 346 kts
2026-04-22 17:04 -23.05291 -68.78350 19075 ft 345 kts
2026-04-22 17:04 -23.02937 -68.77897 18705 ft 340 kts
2026-04-22 17:04 -23.00650 -68.77455 18476 ft 327 kts
2026-04-22 17:05 -22.98475 -68.77031 18123 ft 319 kts
2026-04-22 17:05 -22.96305 -68.76539 17595 ft 319 kts
2026-04-22 17:05 -22.94137 -68.76014 17086 ft 319 kts
2026-04-22 17:05 -22.91977 -68.75487 16643 ft 317 kts
2026-04-22 17:06 -22.89832 -68.74965 16247 ft 314 kts
2026-04-22 17:06 -22.87703 -68.74449 15898 ft 313 kts 10°
2026-04-22 17:06 -22.85576 -68.73935 15562 ft 313 kts 10°
2026-04-22 17:06 -22.83450 -68.73421 15229 ft 313 kts 11°
2026-04-22 17:07 -22.81324 -68.72906 14900 ft 313 kts 11°
2026-04-22 17:07 -22.79222 -68.72396 14550 ft 314 kts 11°
2026-04-22 17:07 -22.77088 -68.71881 14206 ft 315 kts 11°
2026-04-22 17:07 -22.74960 -68.71367 13865 ft 312 kts 11°
2026-04-22 17:08 -22.72850 -68.70858 13492 ft 309 kts 11°
2026-04-22 17:08 -22.70751 -68.70351 13142 ft 309 kts 11°
2026-04-22 17:08 -22.68645 -68.69843 12799 ft 309 kts 11°
2026-04-22 17:08 -22.67267 -68.69511 12661 ft 303 kts 11°
2026-04-22 17:09 -22.64605 -68.68869 12598 ft 282 kts 11°
2026-04-22 17:09 -22.62750 -68.68422 12592 ft 265 kts 11°
2026-04-22 17:09 -22.61569 -68.68153 12593 ft 259 kts
2026-04-22 17:09 -22.59188 -68.67901 12360 ft 255 kts
2026-04-22 17:10 -22.58023 -68.67816 12093 ft 253 kts
2026-04-22 17:10 -22.56273 -68.67685 11663 ft 251 kts
2026-04-22 17:10 -22.54542 -68.67558 11233 ft 247 kts
2026-04-22 17:10 -22.52895 -68.67856 11066 ft 240 kts 333°
2026-04-22 17:11 -22.51697 -68.69042 10965 ft 234 kts 300°
2026-04-22 17:11 -22.51281 -68.70707 10629 ft 229 kts 274°
2026-04-22 17:11 -22.51198 -68.72428 10250 ft 230 kts 273°
2026-04-22 17:11 -22.51106 -68.74135 9856 ft 223 kts 273°
2026-04-22 17:12 -22.51010 -68.75773 9461 ft 210 kts 272°
2026-04-22 17:12 -22.50915 -68.77269 9243 ft 182 kts 272°
2026-04-22 17:12 -22.50831 -68.78497 9164 ft 154 kts 273°
2026-04-22 17:12 -22.50760 -68.79638 9013 ft 150 kts 272°
2026-04-22 17:13 -22.50682 -68.80741 8840 ft 148 kts 274°
2026-04-22 17:13 -22.50613 -68.81850 8671 ft 147 kts 274°
2026-04-22 17:13 -22.50553 -68.82961 8467 ft 148 kts 274°
2026-04-22 17:13 -22.50473 -68.84072 8355 ft 146 kts 275°
2026-04-22 17:14 -22.50372 -68.85167 8296 ft 148 kts 273°
2026-04-22 17:14 -22.50296 -68.86284 8006 ft 149 kts 272°
2026-04-22 17:14 -22.50210 -68.87406 7905 ft 148 kts 272°
2026-04-22 17:14 -22.50136 -68.88506 7728 ft 146 kts 272°
2026-04-22 17:15 -22.50084 -68.89220 7620 ft 141 kts 271°
2026-04-22 17:15 -22.50018 -68.90204 7553 ft 42 kts 274°
2026-04-22 17:15 -22.50007 -68.90386 7538 ft 22 kts 274°
2026-04-22 17:15 -22.49994 -68.90549 7528 ft 22 kts 274°
2026-04-22 17:16 -22.49984 -68.90711 7506 ft 18 kts 274°
2026-04-22 17:16 -22.49957 -68.90782 7502 ft 9 kts 329°
2026-04-22 17:16 -22.49890 -68.90793 7504 ft 11 kts 356°
2026-04-22 17:16 -22.49805 -68.90781 7504 ft 10 kts
2026-04-22 17:17 -22.49758 -68.90777 7507 ft 8 kts
2026-04-22 17:17 -22.49698 -68.90773 7500 ft 10 kts
2026-04-22 17:17 -22.49657 -68.90765 7512 ft 3 kts 19°
2026-04-22 17:17 -22.49621 -68.90759 7505 ft 1 kts
2026-04-22 17:18 -22.49615 -68.90759 7501 ft 1 kts
2026-04-22 17:18 -22.49606 -68.90758 7506 ft 1 kts
2026-04-22 17:18 -22.49599 -68.90757 7510 ft 0 kts
2026-04-22 17:18 -22.49596 -68.90757 7509 ft 0 kts
2026-04-22 17:19 -22.49595 -68.90757 7514 ft 0 kts